User: anonymous   Login
Location: Puketoi
(40.5833°S, 176.0167°E)
Time: 00:59:08
(UTC+00:00)
Language:

COSMOS 2455 - Orbit

View from above orbital plane
View from above orbital plane
View from above satellite
View from above satellite

Ground track
Ground track

The orbit data is extracted from the following two-line orbital elements,

1 36095U 09063A   24201.54263295  .00000019  00000-0  67353-4 0  9994
2 36095  67.1476 149.4210 0009315 270.8896  89.1122 13.96914412747871
Epoch (UTC): 19 July 2024 13:01:23
Eccentricity: 0.0009315
inclination: 67.1476°
perigee height: 898 km
apogee height: 911 km
right ascension of ascending node: 149.4210°
argument of perigee: 270.8896°
revolutions per day: 13.96914412
mean anomaly at epoch: 89.1122°
orbit number at epoch: 74787

The dashed part of the orbit path shows where the satellite is in the earth's shadow,  

DLR